User: anonymous   Login
Location: Santa Barbara
(34.4500°N, 119.7700°W)
Time: 00:16:11
(UTC-07:00)
Language:

Cosmos 1626 Rocket - Orbit

View from above orbital plane
View from above orbital plane
View from above satellite
View from above satellite

Ground track
Ground track

The orbit data is extracted from the following two-line orbital elements,

1 15495U 85009B   17291.51934167 +.00000084 +00000-0 +72086-5 0  9992
2 15495 082.5239 071.9463 0018635 284.4168 075.4978 14.83785511747169
Epoch (UTC): 18 October 2017 12:27:51
Eccentricity: 0.0018635
inclination: 82.5239°
perigee height: 604 km
apogee height: 630 km
right ascension of ascending node: 71.9463°
argument of perigee: 284.4168°
revolutions per day: 14.83785511
mean anomaly at epoch: 75.4978°
orbit number at epoch: 74716

The dashed part of the orbit path shows where the satellite is in the earth's shadow,  

DLR